This is the latest recevied weather packets stored in our database for station/object 4S6DRJ-13. If no packets are shown the sender has not sent any weather packets the latest 10 day(s).
| Time | Temp. | Humidity | Pressure | Rain* | Wind** | Luminosity | Snow |
|---|---|---|---|---|---|---|---|
| 1788057454 | 28.89° C | 80% | 1010.5 hPa | 0 mm | 0.89 m/s, 75° | 156 W/m² | - |
| 1788057393 | 28.89° C | 80% | 1010.5 hPa | 0 mm | 1.34 m/s, 276° | 165 W/m² | - |
| 1788057332 | 28.89° C | 80% | 1010.4 hPa | 0 mm | 1.79 m/s, 270° | 183 W/m² | - |
| 1788057271 | 28.89° C | 80% | 1010.5 hPa | 0 mm | 0.89 m/s, 234° | 166 W/m² | - |
| 1788057210 | 28.89° C | 80% | 1010.4 hPa | 0 mm | 0 m/s | 164 W/m² | - |
| 1788057149 | 28.89° C | 80% | 1010.5 hPa | 0 mm | 1.34 m/s, 294° | 185 W/m² | - |
| 1788057088 | 28.89° C | 79% | 1010.4 hPa | 0 mm | 1.34 m/s, 263° | 196 W/m² | - |
| 1788057027 | 28.89° C | 79% | 1010.3 hPa | 0 mm | 0.45 m/s, 252° | 192 W/m² | - |
| 1788056966 | 28.89° C | 80% | 1010.3 hPa | 0 mm | 1.79 m/s, 27° | 235 W/m² | - |
| 1788056905 | 28.89° C | 79% | 1010.3 hPa | 0 mm | 1.34 m/s, 357° | 189 W/m² | - |
| 1788056844 | 28.89° C | 80% | 1010.2 hPa | 0 mm | 0.45 m/s, 286° | 184 W/m² | - |
| 1788056783 | 28.89° C | 80% | 1010.3 hPa | 0 mm | 1.34 m/s, 240° | 208 W/m² | - |
| 1788056723 | 28.89° C | 80% | 1010.4 hPa | 0 mm | 0 m/s | 200 W/m² | - |
| 1788056661 | 28.89° C | 80% | 1010.3 hPa | 0 mm | 0.89 m/s, 215° | 285 W/m² | - |
| 1788056600 | 28.89° C | 80% | 1010.1 hPa | 0 mm | 0.89 m/s, 250° | 321 W/m² | - |
| 1788056540 | 28.89° C | 80% | 1010.3 hPa | 0 mm | 0.45 m/s, 247° | 298 W/m² | - |
| 1788056478 | 28.89° C | 80% | 1010.3 hPa | 0 mm | 0.45 m/s, 220° | 269 W/m² | - |
| 1788056418 | 28.89° C | 80% | 1010.3 hPa | 0 mm | 2.68 m/s, 252° | 349 W/m² | - |
| 1788056356 | 28.89° C | 80% | 1010.3 hPa | 0 mm | 1.34 m/s, 15° | 247 W/m² | - |
| 1788056295 | 28.89° C | 80% | 1010.2 hPa | 0 mm | 0.89 m/s, 301° | 238 W/m² | - |
| 1788056234 | 28.89° C | 80% | 1010.1 hPa | 0 mm | 0.89 m/s, 229° | 193 W/m² | - |
| 1788056173 | 28.89° C | 80% | 1010.2 hPa | 0 mm | 1.79 m/s, 219° | 168 W/m² | - |
| 1788056112 | 28.89° C | 81% | 1010.2 hPa | 0 mm | 0 m/s | 161 W/m² | - |
| 1788056051 | 28.89° C | 81% | 1010.3 hPa | 0 mm | 0 m/s | 279 W/m² | - |
| 1788055990 | 28.89° C | 81% | 1010.3 hPa | 0 mm | 0.45 m/s, 268° | 266 W/m² | - |
* Rain latest hour (hover to see other rain measurements)
** Current wind speed in m/s (hover to see current wind gust speed)